SP3NYX-11 Weather Reports


time (UTC)temp
F
wind
direction
speed
knots
gust
knots
rain 1hr
in
rain 24hr
in
rain mn
in
humidity
%
barometer
mb
20260508023807 42 338 3.5 7.8 0.00 0.00 0.00 92 1016.0
20260508023407 42 329 4.3 7.8 0.00 0.00 0.00 92 1016.0
20260508023207 42 339 3.5 6.1 0.00 0.00 0.00 92 1016.0
20260508023008 42 353 3.5 6.1 0.00 0.00 0.00 92 1016.0
20260508022807 42 350 2.6 6.1 0.00 0.00 0.00 92 1016.0
20260508022607 42 356 2.6 6.1 0.00 0.00 0.00 92 1016.0
20260508022409 42 355 3.5 6.1 0.00 0.00 0.00 92 1016.0
20260508022208 42 357 4.3 7.8 0.00 0.00 0.00 92 1016.0
20260508021807 42 353 2.6 7.8 0.00 0.00 0.00 92 1016.0
20260508021607 42 351 4.3 8.7 0.00 0.00 0.00 92 1016.0
20260508021408 42 354 4.3 8.7 0.00 0.00 0.00 92 1016.0
20260508021208 42 349 4.3 8.7 0.00 0.00 0.00 92 1016.0
20260508021007 42 349 3.5 8.7 0.00 0.00 0.00 92 1016.0
20260508020807 42 349 3.5 8.7 0.00 0.00 0.00 92 1016.0
20260508020608 42 348 3.5 7.0 0.00 0.00 0.00 92 1016.0
20260508020408 42 345 4.3 7.0 0.00 0.00 0.00 91 1016.0
20260508020207 42 347 5.2 7.0 0.00 0.00 0.00 91 1016.0
20260508020007 42 348 5.2 7.0 0.00 0.00 0.00 91 1016.0
20260508015808 42 352 2.6 6.1 0.00 0.00 0.00 91 1016.0
20260508015607 42 356 3.5 6.1 0.00 0.00 0.00 91 1016.0
20260508015407 42 354 4.3 6.1 0.00 0.00 0.00 91 1016.0
20260508015208 42 353 4.3 6.1 0.00 0.00 0.00 91 1016.0
20260508015007 42 352 4.3 6.1 0.00 0.00 0.00 91 1016.0
20260508014808 42 348 5.2 7.0 0.00 0.00 0.00 91 1016.0
20260508014408 42 346 4.3 8.7 0.00 0.00 0.00 91 1016.0
20260508014008 42 337 5.2 8.7 0.00 0.00 0.00 91 1016.0
20260508013807 42 340 5.2 8.7 0.00 0.00 0.00 91 1016.0
20260508013607 42 336 2.6 6.1 0.00 0.00 0.00 91 1016.0
20260508013408 42 333 2.6 6.1 0.00 0.00 0.00 91 1016.0
20260508013208 42 341 3.5 6.1 0.00 0.00 0.00 91 1016.0
20260508013008 42 342 3.5 6.1 0.00 0.00 0.00 91 1016.0
20260508012807 42 342 2.6 6.1 0.00 0.00 0.00 91 1015.0
20260508012610 42 345 4.3 7.0 0.00 0.00 0.00 91 1015.0
20260508012408 42 346 3.5 7.0 0.00 0.00 0.00 91 1015.0
20260508012207 42 347 3.5 7.0 0.00 0.00 0.00 91 1015.0
20260508012008 42 345 4.3 7.0 0.00 0.00 0.00 91 1015.0
20260508011807 42 343 3.5 7.0 0.00 0.00 0.00 91 1015.0
20260508011607 42 339 2.6 7.0 0.00 0.00 0.00 91 1015.0
20260508011408 42 344 5.2 7.0 0.00 0.00 0.00 91 1016.0
20260508011208 42 340 2.6 6.1 0.00 0.00 0.00 91 1016.0
20260508011007 42 347 4.3 6.1 0.00 0.00 0.00 91 1016.0
20260508010607 42 353 3.5 6.1 0.00 0.00 0.00 91 1016.0
20260508010408 42 351 3.5 6.1 0.00 0.00 0.00 91 1016.0
20260508010207 42 353 4.3 6.1 0.00 0.00 0.00 91 1016.0
20260508010007 42 354 5.2 7.8 0.00 0.00 0.00 91 1016.0
20260508005808 42 352 3.5 7.8 0.00 0.00 0.00 91 1015.0
20260508005608 42 347 5.2 8.7 0.00 0.00 0.00 91 1015.0
20260508005407 42 349 4.3 8.7 0.00 0.00 0.00 91 1015.0
20260508005208 42 347 5.2 8.7 0.00 0.00 0.00 91 1015.0
20260508004607 42 347 2.6 6.1 0.00 0.00 0.00 91 1015.0
20260508003608 42 335 5.2 7.0 0.00 0.00 0.00 91 1015.0
20260508003407 42 332 3.5 7.0 0.00 0.00 0.00 91 1015.0
20260508003208 42 323 4.3 7.0 0.00 0.00 0.00 91 1015.0
20260508003007 42 338 3.5 7.0 0.00 0.00 0.00 91 1015.0
20260508002407 42 346 2.6 7.0 0.00 0.00 0.00 91 1016.0
20260508001807 42 341 2.6 7.0 0.00 0.00 0.00 91 1016.0
20260508001608 42 343 4.3 6.1 0.00 0.00 0.00 91 1016.0
20260508001208 42 331 3.5 6.1 0.00 0.00 0.00 91 1016.0
20260508001008 42 328 3.5 6.1 0.00 0.00 0.00 91 1016.0
20260508000607 42 319 4.3 6.1 0.00 0.00 0.00 91 1016.0
20260508000407 42 323 2.6 6.1 0.00 0.00 0.00 91 1016.0
20260508000209 42 329 3.5 7.0 0.00 0.00 0.00 91 1016.0
20260508000007 42 326 3.5 7.0 0.00 0.00 0.00 91 1016.0
20260507235807 42 323 2.6 7.0 0.00 0.00 0.00 91 1016.0
20260507235608 42 324 3.5 7.0 0.00 0.00 0.00 91 1016.0
20260507235407 42 326 3.5 7.0 0.00 0.00 0.00 91 1016.0
20260507235207 42 320 3.5 5.2 0.00 0.00 0.00 91 1016.0
20260507235008 42 327 2.6 5.2 0.00 0.00 0.00 91 1016.0
20260507234607 42 325 3.5 6.1 0.00 0.00 0.00 91 1016.0
20260507234408 42 318 3.5 6.1 0.00 0.00 0.00 91 1016.0
20260507234209 42 320 3.5 6.1 0.00 0.00 0.00 91 1016.0
20260507234008 42 312 2.6 6.1 0.00 0.00 0.00 91 1016.0
20260507233207 42 311 2.6 6.1 0.00 0.00 0.00 91 1016.0
20260507233008 42 327 4.3 6.1 0.00 0.00 0.00 91 1016.0
20260507232612 42 317 2.6 6.1 0.00 0.00 0.00 91 1016.0
20260507232208 42 315 3.5 6.1 0.00 0.00 0.00 91 1016.0
20260507232008 42 307 2.6 5.2 0.00 0.00 0.00 91 1016.0
20260507231807 42 319 2.6 6.1 0.00 0.00 0.00 91 1016.0
20260507231608 42 319 2.6 6.1 0.00 0.00 0.00 91 1016.0
20260507231408 42 317 2.6 6.1 0.00 0.00 0.00 91 1016.0
20260507231209 42 315 2.6 6.1 0.00 0.00 0.00 91 1016.0
20260507231008 42 308 3.5 6.1 0.00 0.00 0.00 91 1016.0
20260507230607 42 303 3.5 6.1 0.00 0.00 0.00 91 1016.0
20260507230408 43 298 3.5 6.1 0.00 0.00 0.00 91 1016.0
20260507230208 42 300 2.6 6.1 0.00 0.00 0.00 91 1016.0
20260507230007 42 311 0.0 6.1 0.00 0.00 0.00 91 1016.0
20260507225808 43 309 3.5 5.2 0.00 0.00 0.00 91 1016.0
20260507225608 43 303 3.5 4.3 0.00 0.00 0.00 91 1016.0
20260507225408 43 321 0.0 5.2 0.00 0.00 0.00 91 1016.0
20260507225208 43 336 2.6 5.2 0.00 0.00 0.00 91 1016.0
20260507224808 43 335 2.6 5.2 0.00 0.00 0.00 91 1016.0
20260507224608 43 329 2.6 5.2 0.00 0.00 0.00 91 1016.0
20260507224407 43 331 2.6 4.3 0.00 0.00 0.00 91 1016.0
20260507224208 43 324 2.6 6.1 0.00 0.00 0.00 91 1016.0
20260507224008 43 317 0.0 6.1 0.00 0.00 0.00 91 1016.0
20260507223610 43 320 0.0 6.1 0.00 0.00 0.00 91 1016.0
20260507223407 43 318 3.5 6.1 0.00 0.00 0.00 91 1016.0
20260507223208 43 316 0.0 4.3 0.00 0.00 0.00 91 1016.0
20260507223007 43 320 0.0 4.3 0.00 0.00 0.00 91 1016.0
20260507222808 43 326 0.0 4.3 0.00 0.00 0.00 91 1016.0
20260507222608 43 319 3.5 5.2 0.00 0.00 0.00 91 1016.0
20260507222407 43 319 2.6 5.2 0.00 0.00 0.00 91 1016.0
20260507222209 43 311 0.0 5.2 0.00 0.00 0.00 91 1016.0
20260507222007 43 315 0.0 5.2 0.00 0.00 0.00 91 1016.0
20260507221807 43 316 0.0 5.2 0.00 0.00 0.00 91 1016.0
20260507221607 43 328 0.0 5.2 0.00 0.00 0.00 91 1016.0
20260507221408 43 317 0.0 5.2 0.00 0.00 0.00 91 1016.0
20260507221207 43 326 0.0 6.1 0.00 0.00 0.00 91 1016.0
20260507221007 43 326 0.0 6.1 0.00 0.00 0.00 91 1016.0
20260507220808 43 317 0.0 6.1 0.00 0.00 0.00 91 1016.0
20260507220608 43 321 2.6 6.1 0.00 0.00 0.00 91 1016.0
20260507220408 43 324 3.5 6.1 0.00 0.00 0.00 91 1016.0
20260507220207 43 322 3.5 6.1 0.00 0.00 0.00 91 1016.0
20260507220008 43 323 0.0 6.1 0.00 0.00 0.00 91 1016.0
20260507215807 43 340 3.5 6.1 0.00 0.00 0.00 91 1016.0
20260507215608 43 346 0.0 5.2 0.00 0.00 0.00 91 1016.0
20260507215208 42 347 2.6 4.3 0.00 0.00 0.00 91 1016.0
20260507215007 43 344 3.5 6.1 0.00 0.00 0.00 91 1016.0
20260507214807 43 325 0.0 6.1 0.00 0.00 0.00 91 1016.0
20260507214608 43 330 2.6 6.1 0.00 0.00 0.00 91 1016.0
20260507214408 43 334 0.0 6.1 0.00 0.00 0.00 91 1015.0
20260507214207 43 336 3.5 6.1 0.00 0.00 0.00 91 1015.0
20260507214007 43 322 2.6 5.2 0.00 0.00 0.00 91 1015.0
20260507213808 43 326 2.6 5.2 0.00 0.00 0.00 91 1015.0
20260507213608 43 314 2.6 6.1 0.00 0.00 0.00 91 1015.0
20260507213408 43 327 0.0 6.1 0.00 0.00 0.00 91 1015.0
20260507213209 43 334 0.0 6.1 0.00 0.00 0.00 91 1015.0
20260507213007 43 334 0.0 6.1 0.00 0.00 0.00 90 1015.0
20260507212608 43 334 3.5 7.0 0.00 0.00 0.00 90 1015.0
20260507212408 43 328 3.5 7.0 0.00 0.00 0.00 90 1015.0
20260507212207 43 329 3.5 7.0 0.00 0.00 0.00 90 1015.0
20260507211808 43 335 5.2 7.0 0.00 0.00 0.00 90 1015.0
20260507211607 42 338 2.6 7.8 0.00 0.00 0.00 90 1015.0
20260507211408 43 340 3.5 7.8 0.00 0.00 0.00 90 1015.0
20260507211209 43 339 2.6 7.8 0.00 0.00 0.00 90 1015.0
20260507211007 43 337 3.5 7.8 0.00 0.00 0.00 90 1015.0
20260507210808 42 334 5.2 7.8 0.00 0.00 0.00 90 1015.0
20260507210608 43 332 2.6 7.0 0.00 0.00 0.00 90 1015.0
20260507210407 43 331 4.3 7.0 0.00 0.00 0.00 90 1015.0
20260507210208 43 329 3.5 6.1 0.00 0.00 0.00 90 1015.0
20260507210009 43 334 0.0 6.1 0.00 0.00 0.00 90 1015.0
20260507205807 43 336 3.5 6.1 0.00 0.00 0.00 90 1015.0
20260507205607 43 337 3.5 6.1 0.00 0.00 0.00 90 1015.0
20260507205409 43 333 3.5 6.1 0.00 0.00 0.00 90 1015.0
20260507205208 43 333 0.0 6.1 0.00 0.00 0.00 90 1015.0
20260507205008 43 328 3.5 6.1 0.00 0.00 0.00 90 1015.0
20260507204809 43 321 3.5 6.1 0.00 0.00 0.00 90 1015.0
20260507204608 43 313 4.3 6.1 0.00 0.00 0.00 90 1015.0
20260507204407 43 319 2.6 6.1 0.00 0.00 0.00 90 1015.0
20260507204207 43 315 2.6 6.1 0.00 0.00 0.00 90 1015.0
20260507204008 43 324 0.0 6.1 0.00 0.00 0.00 90 1015.0
20260507203808 43 325 3.5 6.1 0.00 0.00 0.00 90 1015.0
20260507203607 43 325 2.6 6.1 0.00 0.00 0.00 90 1015.0
20260507203407 43 324 3.5 6.1 0.00 0.00 0.00 90 1015.0
20260507202809 43 317 3.5 6.1 0.00 0.00 0.00 90 1015.0
20260507202607 43 311 3.5 6.1 0.00 0.00 0.00 90 1015.0
20260507202407 43 300 3.5 6.1 0.00 0.00 0.00 90 1015.0
20260507202208 43 290 2.6 6.1 0.00 0.00 0.00 90 1015.0
20260507202008 43 294 4.3 6.1 0.00 0.00 0.00 90 1015.0
20260507201808 43 275 2.6 5.2 0.00 0.00 0.00 90 1015.0
20260507201608 43 284 3.5 5.2 0.00 0.00 0.00 90 1015.0
20260507201408 43 282 2.6 5.2 0.00 0.00 0.00 90 1015.0
20260507201208 43 304 3.5 5.2 0.00 0.00 0.00 90 1015.0
20260507200607 43 306 0.0 5.2 0.00 0.00 0.00 90 1015.0
20260507200407 43 307 3.5 5.2 0.00 0.00 0.00 90 1015.0
20260507200208 43 299 0.0 3.5 0.00 0.00 0.00 90 1015.0
20260507200008 43 296 0.0 4.3 0.00 0.00 0.00 90 1015.0
20260507195807 43 307 2.6 4.3 0.00 0.00 0.00 90 1015.0
20260507195608 43 311 2.6 4.3 0.00 0.00 0.00 90 1015.0
20260507195408 43 313 2.6 5.2 0.00 0.00 0.00 90 1015.0
20260507195208 43 323 2.6 6.1 0.00 0.00 0.00 90 1015.0
20260507195007 43 332 3.5 6.1 0.00 0.00 0.00 90 1015.0
20260507194808 43 330 2.6 6.1 0.00 0.00 0.00 90 1015.0
20260507194407 43 335 0.0 6.1 0.00 0.00 0.00 90 1015.0
20260507194207 43 328 2.6 6.1 0.00 0.00 0.00 90 1015.0
20260507194008 43 323 2.6 6.1 0.00 0.00 0.00 90 1015.0
20260507193808 43 318 4.3 6.1 0.00 0.00 0.00 90 1015.0
20260507193609 43 313 0.0 6.1 0.00 0.00 0.00 90 1015.0
20260507193408 43 313 0.0 6.1 0.00 0.00 0.00 90 1015.0
20260507193208 43 329 2.6 6.1 0.00 0.00 0.00 90 1015.0
20260507193007 43 341 0.0 6.1 0.00 0.00 0.00 90 1015.0
20260507192808 43 335 3.5 6.1 0.00 0.00 0.00 90 1014.0
20260507192607 43 331 0.0 6.1 0.00 0.00 0.00 90 1014.0
20260507192408 43 332 3.5 6.1 0.00 0.00 0.00 90 1014.0
20260507192213 43 332 3.5 6.1 0.00 0.00 0.00 90 1014.0
20260507192007 43 334 3.5 6.1 0.00 0.00 0.00 90 1014.0
20260507191808 43 340 2.6 6.1 0.00 0.00 0.00 90 1014.0
20260507191608 43 332 0.0 6.1 0.00 0.00 0.00 90 1014.0
20260507191407 43 336 3.5 6.1 0.00 0.00 0.00 90 1014.0
20260507190808 43 318 0.0 6.1 0.00 0.00 0.00 90 1014.0
20260507190607 43 325 2.6 6.1 0.00 0.00 0.00 90 1014.0
20260507190407 43 327 0.0 6.1 0.00 0.00 0.00 89 1014.0
20260507190208 43 327 2.6 6.1 0.00 0.00 0.00 89 1014.0
20260507190009 43 333 4.3 6.1 0.00 0.00 0.00 89 1014.0
20260507185808 43 334 3.5 5.2 0.00 0.00 0.00 89 1014.0
20260507185610 43 330 2.6 5.2 0.00 0.00 0.00 89 1014.0
20260507185208 43 312 3.5 5.2 0.00 0.00 0.00 89 1014.0
20260507185007 43 322 0.0 7.0 0.00 0.00 0.00 89 1014.0
20260507184809 43 316 2.6 7.0 0.00 0.00 0.00 89 1014.0
20260507184609 43 330 0.0 7.0 0.00 0.00 0.00 89 1014.0
20260507184408 43 330 0.0 7.0 0.00 0.00 0.00 89 1014.0
20260507184207 43 339 3.5 7.0 0.00 0.00 0.00 89 1014.0
20260507184008 43 339 2.6 7.0 0.00 0.00 0.00 89 1014.0
20260507183808 43 342 3.5 7.0 0.00 0.00 0.00 89 1014.0
20260507183607 43 326 0.0 6.1 0.00 0.00 0.00 89 1014.0
20260507183408 43 344 2.6 6.1 0.00 0.00 0.00 89 1014.0
20260507183208 43 339 0.0 6.1 0.00 0.00 0.00 89 1014.0
20260507183008 43 343 2.6 7.0 0.00 0.00 0.00 89 1014.0
20260507182608 43 340 3.5 7.0 0.00 0.00 0.00 89 1014.0
20260507182409 43 332 2.6 7.0 0.00 0.00 0.00 89 1014.0
20260507182208 43 329 4.3 7.0 0.00 0.00 0.00 89 1014.0
20260507182008 43 334 3.5 7.0 0.00 0.00 0.00 89 1014.0
20260507181807 43 339 3.5 7.0 0.00 0.00 0.00 89 1014.0
20260507181408 43 325 3.5 6.1 0.00 0.00 0.00 89 1014.0
20260507181208 43 328 3.5 7.0 0.00 0.00 0.00 89 1014.0
20260507181007 43 318 0.0 7.0 0.00 0.00 0.00 89 1014.0
20260507180808 43 319 2.6 7.0 0.00 0.00 0.00 89 1014.0
20260507180607 43 325 4.3 7.0 0.00 0.00 0.00 89 1014.0
20260507180408 43 335 5.2 7.0 0.00 0.00 0.00 89 1014.0
20260507180208 44 337 3.5 7.0 0.00 0.00 0.00 89 1014.0
20260507180008 44 334 3.5 6.1 0.00 0.00 0.00 89 1014.0
20260507175808 44 332 0.0 6.1 0.00 0.00 0.00 88 1013.0
20260507175607 44 329 2.6 6.1 0.00 0.00 0.00 88 1013.0
20260507175408 44 332 0.0 6.1 0.00 0.00 0.00 88 1013.0
20260507175209 43 330 0.0 5.2 0.00 0.00 0.00 88 1013.0
20260507175008 43 339 3.5 6.1 0.00 0.00 0.00 88 1013.0
20260507174807 43 339 3.5 6.1 0.00 0.00 0.00 88 1013.0
20260507174608 43 340 3.5 6.1 0.00 0.00 0.00 88 1013.0
20260507174408 43 334 3.5 6.1 0.00 0.00 0.00 88 1013.0
20260507174208 43 338 3.5 7.0 0.00 0.00 0.00 88 1013.0
20260507173808 43 321 3.5 7.0 0.00 0.00 0.00 88 1013.0
20260507173608 43 330 3.5 7.8 0.00 0.00 0.00 88 1013.0
20260507173208 43 334 3.5 7.8 0.00 0.00 0.00 88 1013.0
20260507173008 43 335 2.6 7.8 0.00 0.00 0.00 87 1013.0
20260507172807 43 337 3.5 9.6 0.00 0.00 0.00 87 1013.0
20260507172607 43 337 3.5 9.6 0.00 0.00 0.00 87 1013.0
20260507172408 43 337 3.5 9.6 0.00 0.00 0.00 87 1013.0
20260507172209 43 339 2.6 9.6 0.00 0.00 0.00 87 1013.0
20260507172007 43 336 5.2 9.6 0.00 0.00 0.00 87 1013.0
20260507171608 43 334 5.2 9.6 0.00 0.00 0.00 87 1013.0
20260507171408 43 329 5.2 9.6 0.00 0.00 0.00 87 1013.0
20260507171207 44 317 4.3 9.6 0.00 0.00 0.00 87 1013.0
20260507171008 44 312 4.3 9.6 0.00 0.00 0.00 87 1013.0
20260507170808 44 310 4.3 9.6 0.00 0.00 0.00 87 1013.0
20260507170607 44 289 3.5 9.6 0.00 0.00 0.00 87 1013.0
20260507170408 44 285 3.5 7.8 0.00 0.00 0.00 87 1013.0
20260507170207 44 299 2.6 7.8 0.00 0.00 0.00 87 1013.0
20260507170008 44 312 3.5 7.8 0.00 0.00 0.00 87 1013.0
20260507165808 44 316 4.3 8.7 0.00 0.00 0.00 87 1013.0
20260507165608 44 319 4.3 8.7 0.00 0.00 0.00 87 1013.0
20260507165408 44 321 5.2 8.7 0.00 0.00 0.00 87 1013.0
20260507165208 44 311 4.3 8.7 0.00 0.00 0.00 86 1013.0
20260507165009 44 284 6.1 8.7 0.00 0.00 0.00 86 1013.0
20260507164807 44 262 4.3 8.7 0.00 0.00 0.00 86 1013.0
20260507164607 44 262 3.5 8.7 0.00 0.00 0.00 86 1013.0
20260507164408 44 310 4.3 9.6 0.00 0.00 0.00 86 1013.0
20260507164209 44 310 3.5 9.6 0.00 0.00 0.00 86 1013.0
20260507164010 44 319 3.5 9.6 0.00 0.00 0.00 86 1013.0
20260507163607 44 329 6.1 9.6 0.00 0.00 0.00 86 1013.0
20260507163408 44 331 4.3 9.6 0.00 0.00 0.00 86 1013.0
20260507163208 44 354 3.5 9.6 0.00 0.00 0.00 86 1013.0
20260507163007 44 343 2.6 9.6 0.00 0.00 0.00 86 1013.0
20260507162808 44 339 3.5 9.6 0.00 0.00 0.00 85 1013.0
20260507162608 44 333 3.5 9.6 0.00 0.00 0.00 85 1013.0
20260507162408 44 330 4.3 9.6 0.00 0.00 0.00 85 1013.0
20260507162208 44 323 3.5 9.6 0.00 0.00 0.00 85 1013.0
20260507162010 44 326 4.3 9.6 0.00 0.00 0.00 85 1013.0
20260507161608 44 324 5.2 9.6 0.00 0.00 0.00 85 1013.0
20260507161407 44 329 3.5 9.6 0.00 0.00 0.00 85 1013.0
20260507161208 44 331 5.2 9.6 0.00 0.00 0.00 85 1013.0
20260507161008 44 334 4.3 9.6 0.00 0.00 0.00 85 1013.0
20260507160808 44 339 3.5 9.6 0.00 0.00 0.00 84 1013.0
20260507160607 44 340 6.1 9.6 0.00 0.00 0.00 84 1013.0
20260507160408 45 334 5.2 9.6 0.00 0.00 0.00 84 1013.0
20260507160008 45 333 4.3 7.8 0.00 0.00 0.00 84 1013.0
20260507155807 45 344 3.5 7.8 0.00 0.00 0.00 84 1013.0
20260507155608 45 348 2.6 7.8 0.00 0.00 0.00 84 1013.0
20260507155408 45 355 4.3 7.8 0.00 0.00 0.00 84 1013.0
20260507155209 46 359 2.6 6.1 0.00 0.00 0.00 84 1013.0
20260507155007 45 3 2.6 6.1 0.00 0.00 0.00 84 1013.0
20260507154807 45 357 3.5 6.1 0.00 0.00 0.00 84 1013.0
20260507154608 46 354 4.3 6.1 0.00 0.00 0.00 84 1013.0
20260507154208 46 356 2.6 8.7 0.00 0.00 0.00 83 1013.0
20260507154009 45 352 4.3 8.7 0.00 0.00 0.00 83 1013.0
20260507153809 45 353 3.5 8.7 0.00 0.00 0.00 83 1013.0
20260507153607 45 357 3.5 8.7 0.00 0.00 0.00 83 1013.0
20260507153408 45 356 3.5 6.1 0.00 0.00 0.00 83 1013.0
20260507153208 45 353 2.6 6.1 0.00 0.00 0.00 84 1013.0
20260507153008 45 1 3.5 6.1 0.00 0.00 0.00 84 1013.0
20260507152807 45 3 4.3 6.1 0.00 0.00 0.00 84 1013.0
20260507152608 45 4 3.5 6.1 0.00 0.00 0.00 85 1013.0
20260507152409 45 9 2.6 6.1 0.00 0.00 0.00 85 1013.0
20260507152207 45 8 4.3 7.8 0.00 0.00 0.00 84 1013.0
20260507152008 45 3 0.0 7.8 0.00 0.00 0.00 85 1013.0
20260507151808 45 5 4.3 8.7 0.00 0.00 0.00 85 1013.0
20260507151610 44 12 4.3 9.6 0.00 0.00 0.00 85 1013.0
20260507151207 44 12 2.6 9.6 0.00 0.00 0.00 85 1013.0
20260507151008 44 12 5.2 9.6 0.00 0.00 0.00 84 1013.0
20260507150808 44 12 6.1 9.6 0.00 0.00 0.00 84 1013.0
20260507150608 44 7 3.5 9.6 0.00 0.00 0.00 85 1013.0
20260507150407 44 4 3.5 9.6 0.00 0.00 0.00 85 1013.0
20260507150208 44 6 3.5 10.4 0.00 0.00 0.00 85 1013.0
20260507150008 44 8 6.1 10.4 0.00 0.00 0.00 85 1013.0
20260507145808 44 8 5.2 10.4 0.00 0.00 0.00 85 1013.0
20260507145608 44 8 3.5 10.4 0.00 0.00 0.00 85 1013.0
20260507145408 44 5 6.1 10.4 0.00 0.00 0.00 85 1013.0
20260507145208 44 359 4.3 7.8 0.00 0.00 0.00 85 1013.0
20260507145007 45 359 4.3 7.0 0.00 0.00 0.00 85 1013.0
20260507144608 45 358 3.5 7.0 0.00 0.00 0.00 85 1013.0
20260507144410 44 358 3.5 7.0 0.00 0.00 0.00 85 1013.0
20260507144209 44 358 4.3 7.0 0.00 0.00 0.00 85 1013.0
20260507143807 44 355 6.1 7.8 0.00 0.00 0.00 85 1013.0
20260507143608 44 348 3.5 7.8 0.00 0.00 0.00 85 1013.0
20260507143408 45 344 3.5 7.8 0.00 0.00 0.00 85 1013.0
20260507143208 45 354 4.3 7.8 0.00 0.00 0.00 85 1013.0
20260507143008 45 355 0.0 7.0 0.00 0.00 0.00 85 1013.0
20260507142807 45 353 0.0 7.0 0.00 0.00 0.00 85 1013.0
20260507142608 45 353 3.5 7.0 0.00 0.00 0.00 85 1013.0
20260507142408 44 357 4.3 7.8 0.00 0.00 0.00 85 1013.0
20260507142208 44 357 3.5 9.6 0.00 0.00 0.00 86 1013.0
20260507142008 45 359 2.6 10.4 0.00 0.00 0.00 86 1013.0
20260507141608 44 2 6.1 10.4 0.00 0.00 0.00 86 1013.0
20260507141408 44 357 6.1 10.4 0.00 0.00 0.00 85 1012.0
20260507141008 45 2 3.5 7.8 0.00 0.00 0.00 86 1012.0
20260507140408 44 29 3.5 8.7 0.00 0.00 0.00 85 1012.0
20260507140208 44 30 2.6 8.7 0.00 0.00 0.00 85 1012.0
20260507140008 44 28 4.3 8.7 0.00 0.00 0.00 85 1012.0
20260507135809 44 26 4.3 8.7 0.00 0.00 0.00 85 1012.0
20260507135608 44 25 5.2 8.7 0.00 0.00 0.00 85 1012.0
20260507135408 44 22 7.0 7.8 0.00 0.00 0.00 85 1012.0
20260507135207 44 21 5.2 7.0 0.00 0.00 0.00 85 1012.0
20260507134808 45 18 4.3 8.7 0.00 0.00 0.00 85 1012.0
20260507134408 44 13 6.1 8.7 0.00 0.00 0.00 84 1012.0
20260507134008 45 5 5.2 8.7 0.00 0.00 0.00 84 1012.0
20260507133811 45 3 6.1 8.7 0.00 0.00 0.00 84 1012.0
20260507133607 45 354 2.6 8.7 0.00 0.00 0.00 85 1012.0
20260507133408 45 353 3.5 8.7 0.00 0.00 0.00 85 1012.0
20260507133208 45 353 2.6 7.0 0.00 0.00 0.00 85 1012.0
20260507132608 45 349 5.2 9.6 0.00 0.00 0.00 85 1012.0
20260507132408 45 343 4.3 9.6 0.00 0.00 0.00 85 1012.0
20260507132208 44 346 6.1 9.6 0.00 0.00 0.00 84 1012.0
20260507132008 44 343 5.2 8.7 0.00 0.00 0.00 85 1012.0
20260507131808 45 359 4.3 7.0 0.00 0.00 0.00 85 1012.0
20260507131409 45 8 3.5 7.0 0.00 0.00 0.00 84 1012.0
20260507131209 45 11 3.5 7.0 0.00 0.00 0.00 84 1012.0
20260507131008 44 11 4.3 7.8 0.00 0.00 0.00 84 1012.0
20260507130807 45 13 4.3 7.8 0.00 0.00 0.00 84 1012.0
20260507130608 45 18 3.5 8.7 0.00 0.00 0.00 84 1012.0
20260507130408 45 21 4.3 8.7 0.00 0.00 0.00 84 1012.0
20260507130208 45 19 3.5 9.6 0.00 0.00 0.00 84 1012.0
20260507130007 44 21 6.1 9.6 0.00 0.00 0.00 84 1012.0
20260507125808 45 21 6.1 9.6 0.00 0.00 0.00 84 1012.0
20260507125608 44 18 6.1 9.6 0.00 0.00 0.00 84 1012.0
20260507125408 44 15 5.2 9.6 0.00 0.00 0.00 84 1012.0
20260507125208 45 11 5.2 9.6 0.00 0.00 0.00 84 1012.0
20260507125011 44 10 7.0 9.6 0.00 0.00 0.00 84 1012.0
20260507124809 44 7 4.3 9.6 0.00 0.00 0.00 85 1012.0
20260507124608 45 6 4.3 9.6 0.00 0.00 0.00 85 1012.0
20260507124408 44 6 6.1 9.6 0.00 0.00 0.00 84 1012.0
20260507124008 44 5 7.0 9.6 0.00 0.00 0.00 84 1012.0
20260507123609 44 350 5.2 8.7 0.00 0.00 0.00 85 1012.0
20260507123408 44 352 6.1 7.8 0.00 0.00 0.00 85 1012.0
20260507123208 45 351 3.5 7.8 0.00 0.00 0.00 85 1012.0
20260507123009 45 359 4.3 7.8 0.00 0.00 0.00 85 1012.0
20260507122808 45 3 5.2 7.8 0.00 0.00 0.00 86 1012.0
20260507122608 44 9 3.5 7.8 0.00 0.00 0.00 86 1012.0
20260507122408 44 16 4.3 8.7 0.00 0.00 0.00 86 1012.0
20260507122208 44 23 5.2 8.7 0.00 0.00 0.00 86 1012.0
20260507122008 44 28 3.5 9.6 0.00 0.00 0.00 86 1012.0
20260507121808 44 30 6.1 9.6 0.00 0.00 0.00 86 1012.0
20260507121608 44 30 7.0 9.6 0.00 0.00 0.00 86 1012.0
20260507121408 44 26 6.1 9.6 0.00 0.00 0.00 86 1012.0
20260507121209 44 21 7.8 9.6 0.00 0.00 0.00 86 1012.0
20260507121008 45 11 3.5 7.8 0.00 0.00 0.00 86 1012.0
20260507120808 45 12 3.5 7.8 0.00 0.00 0.00 86 1012.0
20260507120608 44 13 5.2 7.8 0.00 0.00 0.00 85 1012.0
20260507120408 44 14 4.3 9.6 0.00 0.00 0.00 85 1012.0
20260507120208 44 12 5.2 9.6 0.00 0.00 0.00 85 1012.0
20260507120008 44 7 6.1 9.6 0.00 0.00 0.00 84 1012.0
20260507115808 44 6 3.5 9.6 0.00 0.00 0.00 85 1011.0
20260507115608 44 4 7.0 9.6 0.00 0.00 0.00 85 1011.0
20260507115409 45 1 4.3 9.6 0.00 0.00 0.00 85 1011.0
20260507115008 44 11 6.1 9.6 0.00 0.00 0.00 84 1011.0
20260507114808 45 4 3.5 9.6 0.00 0.00 0.00 85 1011.0
20260507114608 44 5 6.1 9.6 0.00 0.00 0.00 84 1011.0
20260507114408 44 6 6.1 9.6 0.00 0.00 0.00 84 1012.0
20260507114208 45 355 2.6 7.8 0.00 0.00 0.00 84 1012.0
20260507114009 45 352 4.3 7.8 0.00 0.00 0.00 84 1012.0
20260507113608 45 354 5.2 7.8 0.00 0.00 0.00 84 1012.0
20260507113208 45 356 0.0 8.7 0.00 0.00 0.00 85 1012.0
20260507113008 45 2 3.5 8.7 0.00 0.00 0.00 85 1012.0
20260507112810 45 2 4.3 8.7 0.00 0.00 0.00 85 1012.0
20260507112608 44 5 5.2 8.7 0.00 0.00 0.00 85 1012.0
20260507112408 44 4 6.1 8.7 0.00 0.00 0.00 85 1012.0
20260507112207 44 5 5.2 8.7 0.00 0.00 0.00 85 1012.0
20260507112008 44 2 6.1 8.7 0.00 0.00 0.00 84 1012.0
20260507111808 44 3 4.3 7.8 0.00 0.00 0.00 85 1012.0
20260507111608 44 359 3.5 7.8 0.00 0.00 0.00 85 1012.0
20260507111408 44 355 4.3 7.8 0.00 0.00 0.00 85 1011.0
20260507111208 45 343 0.0 6.1 0.00 0.00 0.00 85 1011.0
20260507110808 44 331 3.5 7.0 0.00 0.00 0.00 85 1011.0
20260507110608 44 336 3.5 10.4 0.00 0.00 0.00 85 1011.0
20260507110408 44 338 3.5 10.4 0.00 0.00 0.00 85 1011.0
20260507110008 44 352 4.3 10.4 0.00 0.00 0.00 85 1011.0
20260507105807 44 345 6.1 10.4 0.00 0.00 0.00 85 1011.0
20260507105408 44 3 0.0 7.0 0.00 0.00 0.00 85 1011.0
20260507105208 44 2 3.5 7.0 0.00 0.00 0.00 85 1011.0
20260507104808 44 16 4.3 6.1 0.00 0.00 0.00 84 1011.0
20260507104608 44 14 3.5 5.2 0.00 0.00 0.00 85 1011.0
20260507104408 45 4 0.0 6.1 0.00 0.00 0.00 85 1011.0
20260507104208 44 352 2.6 6.1 0.00 0.00 0.00 84 1011.0
20260507103808 44 332 3.5 6.1 0.00 0.00 0.00 85 1011.0
20260507103608 45 336 4.3 7.0 0.00 0.00 0.00 85 1011.0
20260507103408 45 341 3.5 7.0 0.00 0.00 0.00 85 1011.0
20260507103208 45 347 3.5 7.0 0.00 0.00 0.00 85 1011.0
20260507103008 44 348 4.3 7.8 0.00 0.00 0.00 85 1011.0
20260507102808 44 346 2.6 7.8 0.00 0.00 0.00 85 1011.0
20260507102410 44 332 3.5 7.8 0.00 0.00 0.00 85 1011.0
20260507102208 44 329 4.3 7.8 0.00 0.00 0.00 86 1011.0
20260507102007 44 329 4.3 8.7 0.00 0.00 0.00 86 1011.0
20260507101808 44 326 3.5 8.7 0.00 0.00 0.00 85 1011.0
20260507101407 44 328 4.3 8.7 0.00 0.00 0.00 86 1011.0
20260507101208 43 339 4.3 8.7 0.00 0.00 0.00 85 1011.0
20260507101009 44 345 4.3 6.1 0.00 0.00 0.00 85 1011.0
20260507100607 44 345 3.5 7.8 0.00 0.00 0.00 85 1011.0
20260507100409 44 354 3.5 7.8 0.00 0.00 0.00 85 1011.0
20260507100208 44 352 2.6 7.8 0.00 0.00 0.00 86 1011.0
20260507100009 44 350 3.5 7.8 0.00 0.00 0.00 86 1011.0
20260507095608 43 349 6.1 7.8 0.00 0.00 0.00 86 1011.0
20260507095409 43 345 4.3 7.0 0.00 0.00 0.00 86 1011.0
20260507095208 44 336 3.5 7.0 0.00 0.00 0.00 85 1011.0
20260507095008 43 344 4.3 7.8 0.00 0.00 0.00 85 1011.0
20260507094808 44 342 3.5 7.8 0.00 0.00 0.00 85 1011.0
20260507094608 44 350 3.5 7.8 0.00 0.00 0.00 85 1011.0
20260507094408 44 349 4.3 7.8 0.00 0.00 0.00 84 1011.0
20260507094210 44 358 3.5 7.8 0.00 0.00 0.00 84 1011.0
20260507094009 44 350 3.5 6.1 0.00 0.00 0.00 84 1011.0
20260507093808 44 347 2.6 6.1 0.00 0.00 0.00 85 1011.0
20260507093608 45 325 0.0 5.2 0.00 0.00 0.00 85 1011.0
20260507093408 45 346 2.6 7.0 0.00 0.00 0.00 85 1011.0
20260507093209 45 351 0.0 7.0 0.00 0.00 0.00 85 1011.0
20260507093008 45 348 0.0 7.0 0.00 0.00 0.00 85 1011.0
20260507092808 44 349 3.5 7.8 0.00 0.00 0.00 85 1010.0
20260507092608 44 345 4.3 7.8 0.00 0.00 0.00 84 1010.0
20260507092408 45 343 3.5 7.8 0.00 0.00 0.00 85 1010.0
20260507092209 45 325 3.5 7.8 0.00 0.00 0.00 85 1010.0
20260507091808 45 334 0.0 7.8 0.00 0.00 0.00 86 1010.0
20260507091608 44 343 3.5 7.8 0.00 0.00 0.00 86 1010.0
20260507091208 44 358 4.3 7.0 0.00 0.00 0.00 86 1010.0
20260507090808 43 359 2.6 8.7 0.00 0.00 0.00 87 1010.0
20260507090609 43 4 4.3 8.7 0.00 0.00 0.00 87 1010.0
20260507090409 43 356 4.3 8.7 0.00 0.00 0.00 87 1010.0
20260507090208 43 357 3.5 8.7 0.00 0.00 0.00 87 1010.0
20260507090008 43 359 5.2 8.7 0.00 0.00 0.00 87 1010.0
20260507085808 42 359 4.3 6.1 0.00 0.00 0.00 87 1010.0
20260507085608 43 358 3.5 6.1 0.00 0.00 0.00 87 1010.0
20260507085408 43 359 3.5 6.1 0.00 0.00 0.00 87 1010.0
20260507085208 43 356 2.6 6.1 0.00 0.00 0.00 87 1010.0
20260507085009 43 355 3.5 6.1 0.00 0.00 0.00 87 1010.0
20260507084617 42 353 3.5 7.0 0.00 0.00 0.00 87 1010.0
20260507084408 42 353 3.5 7.8 0.00 0.00 0.00 87 1010.0
20260507084208 42 353 3.5 7.8 0.00 0.00 0.00 87 1010.0
20260507084008 42 354 5.2 7.8 0.00 0.00 0.00 87 1010.0
20260507083808 42 356 2.6 7.8 0.00 0.00 0.00 87 1010.0
20260507083409 43 356 3.5 7.0 0.00 0.00 0.00 88 1010.0
20260507083209 42 2 3.5 7.0 0.00 0.00 0.00 88 1010.0
20260507083009 42 3 5.2 7.0 0.00 0.00 0.00 88 1010.0
20260507082608 42 2 5.2 7.8 0.00 0.00 0.00 88 1010.0
20260507082408 42 2 3.5 7.8 0.00 0.00 0.00 88 1010.0
20260507082208 42 1 5.2 7.8 0.00 0.00 0.00 88 1010.0
20260507082008 42 2 4.3 7.8 0.00 0.00 0.00 88 1010.0
20260507081808 42 2 6.1 7.8 0.00 0.00 0.00 88 1010.0
20260507081608 42 359 4.3 7.8 0.00 0.00 0.00 88 1010.0
20260507081408 42 1 6.1 7.8 0.00 0.00 0.00 88 1010.0
20260507081208 42 355 3.5 6.1 0.00 0.00 0.00 88 1010.0
20260507081008 42 349 3.5 6.1 0.00 0.00 0.00 88 1010.0
20260507080807 42 341 5.2 7.8 0.00 0.00 0.00 88 1010.0
20260507080608 42 339 3.5 8.7 0.00 0.00 0.00 88 1010.0
20260507080408 42 336 0.0 8.7 0.00 0.00 0.00 88 1010.0
20260507080209 42 343 3.5 8.7 0.00 0.00 0.00 88 1010.0
20260507080008 42 340 5.2 8.7 0.00 0.00 0.00 88 1010.0
20260507075810 42 343 3.5 8.7 0.00 0.00 0.00 88 1009.0
20260507075408 42 343 6.1 8.7 0.00 0.00 0.00 88 1009.0
20260507075208 42 341 2.6 7.8 0.00 0.00 0.00 88 1009.0
20260507075008 42 349 4.3 7.8 0.00 0.00 0.00 88 1009.0
20260507074808 42 347 3.5 7.8 0.00 0.00 0.00 88 1009.0
20260507074609 42 352 3.5 7.8 0.00 0.00 0.00 88 1009.0
20260507074408 42 350 4.3 7.8 0.00 0.00 0.00 88 1009.0
20260507074208 42 348 2.6 7.8 0.00 0.00 0.00 89 1009.0
20260507074008 42 348 2.6 8.7 0.00 0.00 0.00 89 1009.0
20260507073809 42 353 3.5 9.6 0.00 0.00 0.00 89 1009.0
20260507073608 42 349 4.3 9.6 0.00 0.00 0.00 88 1009.0
20260507073208 42 349 6.1 9.6 0.00 0.00 0.00 89 1009.0
20260507073008 42 347 6.1 9.6 0.00 0.00 0.00 89 1009.0
20260507072808 42 342 5.2 8.7 0.00 0.00 0.00 89 1009.0
20260507072608 42 340 5.2 7.0 0.00 0.00 0.00 89 1009.0
20260507072407 42 341 3.5 9.6 0.00 0.00 0.00 89 1009.0
20260507072208 42 345 4.3 9.6 0.00 0.00 0.00 89 1009.0
20260507071808 42 356 3.5 9.6 0.00 0.00 0.00 89 1009.0
20260507071408 42 9 5.2 8.7 0.00 0.00 0.00 89 1009.0
20260507071209 42 6 5.2 8.7 0.00 0.00 0.00 89 1009.0
20260507071008 42 5 2.6 7.8 0.00 0.00 0.00 89 1009.0
20260507070809 42 358 3.5 7.8 0.00 0.00 0.00 89 1009.0
20260507070609 42 359 2.6 8.7 0.00 0.00 0.00 89 1009.0
20260507070408 42 359 6.1 8.7 0.00 0.00 0.00 89 1009.0
20260507070209 42 356 6.1 8.7 0.00 0.00 0.00 89 1009.0
20260507070011 42 351 4.3 8.7 0.00 0.00 0.00 89 1009.0
20260507065808 42 346 5.2 8.7 0.00 0.00 0.00 89 1009.0
20260507065609 42 358 3.5 7.0 0.00 0.00 0.00 89 1009.0
20260507065408 42 1 3.5 7.0 0.00 0.00 0.00 89 1009.0
20260507065209 42 6 3.5 7.8 0.00 0.00 0.00 89 1009.0
20260507065008 42 9 3.5 7.8 0.00 0.00 0.00 89 1009.0
20260507064808 42 13 6.1 7.8 0.00 0.00 0.00 90 1009.0
20260507064409 42 7 6.1 8.7 0.00 0.00 0.00 90 1009.0
20260507064208 42 1 3.5 8.7 0.00 0.00 0.00 89 1009.0
20260507064008 42 5 5.2 10.4 0.00 0.00 0.00 90 1009.0
20260507063809 42 4 6.1 10.4 0.00 0.00 0.00 90 1009.0
20260507063608 42 357 4.3 10.4 0.00 0.00 0.00 90 1009.0
20260507063409 42 359 3.5 10.4 0.00 0.00 0.00 90 1009.0
20260507063008 42 10 2.6 9.6 0.00 0.00 0.00 90 1009.0
20260507062808 42 13 6.1 9.6 0.00 0.00 0.00 90 1009.0
20260507062609 41 17 5.2 9.6 0.00 0.00 0.00 90 1009.0
20260507062408 41 20 5.2 9.6 0.00 0.00 0.00 90 1009.0
20260507062208 41 20 7.0 9.6 0.00 0.00 0.00 90 1009.0
20260507062009 41 20 7.0 9.6 0.00 0.00 0.00 90 1009.0
20260507061808 42 23 4.3 9.6 0.00 0.00 0.00 90 1009.0
20260507061608 42 24 7.0 9.6 0.00 0.00 0.00 90 1009.0
20260507061408 42 23 5.2 9.6 0.00 0.00 0.00 90 1008.0
20260507061208 42 23 6.1 9.6 0.00 0.00 0.00 90 1008.0
20260507061009 42 19 2.6 9.6 0.00 0.00 0.00 90 1008.0
20260507060808 42 6 0.0 9.6 0.00 0.00 0.00 90 1008.0
20260507060408 41 354 4.3 9.6 0.00 0.00 0.00 90 1008.0
20260507060209 42 343 2.6 8.7 0.00 0.00 0.00 90 1008.0
20260507055809 41 348 5.2 10.4 0.00 0.00 0.00 90 1008.0
20260507055608 42 345 5.2 10.4 0.00 0.00 0.00 90 1008.0
20260507055411 42 350 6.1 10.4 0.00 0.00 0.00 90 1008.0
20260507055208 42 352 3.5 11.3 0.00 0.00 0.00 91 1008.0
20260507055008 42 356 2.6 11.3 0.00 0.00 0.00 91 1008.0
20260507054808 42 356 6.1 11.3 0.00 0.00 0.00 91 1008.0
20260507054608 42 356 6.1 11.3 0.00 0.00 0.00 91 1008.0
20260507054408 42 354 6.1 11.3 0.00 0.00 0.00 91 1008.0
20260507054008 41 355 5.2 11.3 0.00 0.00 0.00 91 1008.0
20260507053609 41 358 7.8 11.3 0.00 0.00 0.00 91 1008.0
20260507053208 41 357 6.1 10.4 0.00 0.00 0.00 91 1008.0
20260507052808 41 348 7.0 9.6 0.00 0.00 0.00 91 1008.0
20260507052608 41 352 4.3 11.3 0.00 0.00 0.00 91 1008.0
20260507052408 41 344 4.3 11.3 0.00 0.00 0.00 91 1008.0
20260507052209 41 336 6.1 11.3 0.00 0.00 0.00 91 1008.0
20260507052009 41 333 7.0 11.3 0.00 0.00 0.00 91 1008.0
20260507051808 41 335 5.2 11.3 0.00 0.00 0.00 91 1008.0
20260507051610 41 328 7.8 11.3 0.00 0.00 0.00 91 1008.0
20260507051208 42 336 5.2 9.6 0.00 0.00 0.00 91 1008.0
20260507051008 42 349 5.2 9.6 0.00 0.00 0.00 91 1008.0
20260507050808 42 350 5.2 9.6 0.00 0.00 0.00 91 1008.0
20260507050608 42 350 3.5 8.7 0.00 0.00 0.00 91 1008.0
20260507050208 42 355 7.0 9.6 0.00 0.00 0.00 90 1008.0
20260507050010 42 353 3.5 9.6 0.00 0.00 0.00 90 1008.0
20260507045808 42 358 4.3 9.6 0.00 0.00 0.00 90 1008.0
20260507045609 42 358 5.2 9.6 0.00 0.00 0.00 90 1008.0
20260507045408 42 342 6.1 9.6 0.00 0.00 0.00 90 1008.0
20260507045210 42 349 2.6 8.7 0.00 0.00 0.00 90 1008.0
20260507045010 42 350 2.6 8.7 0.00 0.00 0.00 90 1008.0
20260507044808 42 345 5.2 8.7 0.00 0.00 0.00 90 1008.0
20260507044608 42 344 6.1 8.7 0.00 0.00 0.00 90 1008.0
20260507044408 42 2 3.5 8.7 0.00 0.00 0.00 90 1007.0
20260507044208 42 343 3.5 8.7 0.00 0.00 0.00 90 1007.0
20260507044008 42 345 3.5 11.3 0.00 0.00 0.00 90 1007.0
20260507043808 42 343 2.6 11.3 0.00 0.00 0.00 90 1007.0
20260507043608 42 339 4.3 11.3 0.00 0.00 0.00 90 1007.0
20260507043209 42 347 6.1 11.3 0.00 0.00 0.00 90 1007.0
20260507043009 42 343 5.2 9.6 0.00 0.00 0.00 90 1007.0
20260507042808 42 354 3.5 9.6 0.00 0.00 0.00 90 1007.0
20260507042608 42 10 4.3 8.7 0.00 0.00 0.00 90 1007.0
20260507042409 42 6 4.3 9.6 0.00 0.00 0.00 90 1007.0
20260507042208 42 356 6.1 9.6 0.00 0.00 0.00 90 1007.0
20260507042009 42 1 4.3 11.3 0.00 0.00 0.00 90 1007.0
20260507041808 42 357 2.6 11.3 0.00 0.00 0.00 90 1007.0
20260507041608 42 352 6.1 11.3 0.00 0.00 0.00 90 1007.0
20260507041408 42 352 5.2 11.3 0.00 0.00 0.00 90 1007.0
20260507041208 42 345 5.2 11.3 0.00 0.00 0.00 89 1007.0
20260507041009 42 335 4.3 9.6 0.00 0.00 0.00 89 1007.0
20260507040809 42 332 4.3 11.3 0.00 0.00 0.00 89 1007.0
20260507040608 42 336 3.5 11.3 0.00 0.00 0.00 89 1007.0
20260507040208 42 339 6.1 11.3 0.00 0.00 0.00 89 1007.0
20260507040008 42 337 6.1 11.3 0.00 0.00 0.00 89 1007.0
20260507035809 42 341 5.2 10.4 0.00 0.00 0.00 89 1007.0
20260507035608 42 339 6.1 10.4 0.00 0.00 0.00 89 1007.0
20260507035208 42 336 2.6 10.4 0.00 0.00 0.00 89 1007.0
20260507035009 42 334 5.2 10.4 0.00 0.00 0.00 89 1007.0
20260507034808 42 319 5.2 10.4 0.00 0.00 0.00 89 1007.0
20260507034408 42 317 3.5 9.6 0.00 0.00 0.00 89 1007.0
20260507034009 42 328 5.2 9.6 0.00 0.00 0.00 89 1007.0
20260507033808 42 331 5.2 9.6 0.00 0.00 0.00 88 1007.0
20260507033609 43 325 3.5 10.4 0.00 0.00 0.00 88 1007.0
20260507033208 43 323 5.2 10.4 0.00 0.00 0.00 88 1007.0
20260507033009 43 324 6.1 10.4 0.00 0.00 0.00 88 1007.0
20260507032808 43 316 5.2 10.4 0.00 0.00 0.00 88 1007.0
20260507032608 43 319 3.5 9.6 0.00 0.00 0.00 88 1007.0
20260507032410 43 334 3.5 9.6 0.00 0.00 0.00 88 1007.0
20260507032008 44 326 3.5 10.4 0.00 0.00 0.00 88 1007.0
20260507031808 44 326 5.2 10.4 0.00 0.00 0.00 88 1007.0
20260507031609 44 318 3.5 10.4 0.00 0.00 0.00 88 1007.0
20260507031408 44 319 4.3 10.4 0.00 0.00 0.00 88 1007.0
20260507031208 44 316 4.3 7.8 0.00 0.00 0.00 87 1007.0
20260507031008 44 309 3.5 7.8 0.00 0.00 0.00 87 1007.0
20260507030808 44 326 3.5 7.8 0.00 0.00 0.00 87 1007.0
20260507030608 44 328 4.3 7.8 0.00 0.00 0.00 87 1007.0
20260507030009 44 337 4.3 7.0 0.00 0.00 0.00 87 1007.0
20260507025808 44 334 3.5 7.0 0.00 0.00 0.00 87 1007.0
20260507025608 44 335 0.0 7.0 0.00 0.00 0.00 87 1007.0
20260507025409 44 336 5.2 9.6 0.00 0.00 0.00 87 1007.0
20260507025008 44 332 3.5 9.6 0.00 0.00 0.00 87 1007.0
20260507024610 44 336 6.1 9.6 0.00 0.00 0.00 86 1007.0
20260507024408 44 337 2.6 8.7 0.00 0.00 0.00 86 1007.0